Location: Bretagne
(43.8474°N, 0.4650°W)
Time: 08:45:00
(UTC+00:00)

SJ-12 - Pass Details

Date: 15 January 2026
Orbit: 514 x 525 km, 97.8° (Epoch: 17 February)

Event Time Altitude Azimuth Distance (km) Brightness Sun altitude
Rises 17:16:30 0° 148° (SSE) 2,646 7.2 -5.1°
Reaches altitude 10° 17:18:40 10° 141° (SE) 1,764 6.3 -5.5°
Maximum altitude 17:22:14 40° 71° (ENE) 791 4.2 -6.0°
Drops below altitude 10° 17:25:50 10° 2° (N) 1,781 6.2 -6.6°
Sets 17:28:02 0° 355° (N) 2,676 7.1 -7.0°
